Weather in Kichma

Russia / Kirov Oblast     57°11′24″N   48°55′25″E
temp.,
°C
wind,
m/s
gust,
m/s
humid.,
%
clouds,
%
prec.,
mm/h
press.,
hPa
HPBL,
m
6 may, thu
thu600:00+3w5119132 0.1 1009422
03:00+1w49905 0.1 1011264
06:00+3w368473 0.0 1013332
09:00+5wsw3477100 0.0 1014478
12:00+11sw466629 0.0 1014918
15:00+14sw4867100 0.0 10131213
18:00+14ssw377097 0.1 1013155
21:00+10ssw4128688 0.2 1013223
7 may, fri
fri700:00+10ssw51481100 0.0 1013386
03:00+9s51482100 0.0 1013333
06:00+10s61378100 0.0 1013429
09:00+14ssw71160100 0.0 1013973
12:00+16ssw81357100 0.1 10131740
15:00+13wsw81179100 0.8 10141033
18:00+10wsw4881100 0.3 1016555
21:00+8sw359191 0.3 101781
8 may, sat
sat800:00+7sw22905 0.0 101927
03:00+6s11890 0.0 101910
06:00+8ese23805 0.0 1020115
09:00+13ese565533 0.0 1019949
12:00+16se675974 0.0 10171485
15:00+16sse3763100 0.1 10161318
18:00+15se477010 0.1 1014210
21:00+11se51380100 0.1 1014223
9 may, sun
sun900:00+12sse61472100 0.0 1013248
03:00+13sse7167175 0.0 1013408
06:00+13sse71770100 0.0 1012580
09:00+13sse71568100 0.0 1013522
12:00+17sse71362100 0.0 10131213
15:00+15sse71465100 0.0 1013763
18:00+14s51080100 0.1 1014472
21:00+12w3490100 0.3 1015100
10 may, mon
mon1000:00+9nnw3596100 1.1 1016190
03:00+8nne4696100 7.6 1018190
06:00+8nnw4694100 1.1 1021329
09:00+8n4690100 1.5 1023382
12:00+9n5683100 0.1 1024516
15:00+8n688764 0.1 1025385
18:00+8n478527 0.0 1026351
21:00+6nne379276 0.0 1027141